Location: Corte Bragagnani
(45.3000°N, 11.1000°E)
Time: 23:19:16
(UTC+00:00)

SL-08 RB Rocket - Pass Details

Date: 09 April 2020
Orbit: 646 x 684 km, 97.8° (Epoch: 24 May)

Event Time Altitude Azimuth Distance (km) Brightness Sun altitude
Exits shadow 18:56:20 - 160° (SSE) 2,500 6.3 -11.2°
Reaches altitude 10° 18:57:21 10° 159° (SSE) 2,083 5.8 -11.4°
Maximum altitude 19:01:54 74° 75° (ENE) 702 3.7 -12.1°
Drops below altitude 10° 19:06:31 10° 351° (N) 2,122 6.8 -12.8°
Sets 19:08:47 0° 349° (N) 3,046 7.7 -13.2°
